Tracking 19832 objects as of 25-Aug-2019
HD Live streaming from Space Station
objects crossing your sky now

FENGYUN 1C DEB

Track FENGYUN 1C DEB now!
10-day predictions


NORAD ID: 30528
Int'l Code: 1999-025AJS
Perigee: 758.9 km
Apogee: 977.5 km
Inclination: 98.2 °
Period: 102.2 minutes
Semi major axis: 7239 km
RCS: 0.0209 m2 (small)
Launch date: May 10, 1999
Source: People's Republic of China (PRC)
Launch site: Taiyaun Space Center, China (TSC)

Note: This is SATELLITE DEBRIS
aabbcc
Your satellite tracking list
Your tracking list is empty




NASA's NSSDC Master Catalog

Two Line Element Set (TLE):
1 30528U 99025AJS 19236.76351905 +.00000029 +00000-0 +34704-4 0  9993
2 30528 098.1998 259.6489 0150947 005.7647 052.8854 14.09506257646807
Source of the keplerian elements: AFSPC